Location: Ústí nad Labem
(50.6611°N, 14.0531°E)
Time: 16:50:18
(UTC+02:00)

Transit 2A Rocket - Pass Details

Date: 23 April 2024
Orbit: 585 x 909 km, 66.7° (Epoch: 21 May)

Event Time Altitude Azimuth Distance (km) Brightness Sun altitude
Rises 21:44:20 0° 314° (NW) 3,331 10.4 -13.3°
Reaches altitude 10° 21:47:10 10° 300° (WNW) 2,447 9.0 -13.6°
Maximum altitude 21:51:29 23° 251° (WSW) 1,773 7.2 -14.1°
Drops below altitude 10° 21:55:58 10° 201° (SSW) 2,553 7.5 -14.6°
Enters shadow 21:58:32 - 189° (S) 3,355 8.0 -14.9°
